This demonstration page uses our WeatherBlox Daily Observations layout. Learn more.

Left ArrowRight Arrow

39.12711, -84.51439

Hourly Observations for October 8, 2016

Temp ( °F °C ) Dew Point ( °F °C ) Humidity (%) Winds ( mph kmh ) Pressure ( in mb ) Visibility ( mi km ) Precip ( " mm )
12:53 am 00:53 Clear 59 15 59 15 100 100 Calm 30.06 1018 9 14 0.00 0.00
1:53 am 01:53 Mostly Cloudy 66 18.9 61 16.1 84 84 N 14 22 30.08 1019 10 16 0.00 0.00
2:53 am 02:53 Cloudy 64 17.8 58 14.4 81 81 N 17 28 30.09 1019 10 16 0.00 0.00
3:53 am 03:53 Cloudy 62 16.7 56 13.3 80 80 N 16 26 30.10 1019 10 16 0.00 0.00
4:42 am 04:42 Cloudy 60 15.6 50 10 70 70 N 14 22 30.09 1019 10 16 0.00 0.00
4:53 am 04:53 Cloudy 60 15.6 50 10 70 70 N 17 28 30.12 1020 10 16 0.00 0.00
5:53 am 05:53 Cloudy 58 14.4 50 10 75 75 NNE 13 20 30.15 1021 10 16 0.00 0.00
6:53 am 06:53 Clear 56 13.3 49 9.4 77 77 N 15 24 30.16 1021 10 16 0.00 0.00
7:53 am 07:53 Sunny 54 12.2 48 8.9 80 80 NNE 7 11 30.19 1022 10 16 0.00 0.00
8:53 am 08:53 Mostly Sunny 55 12.8 49 9.4 80 80 N 15 24 30.20 1023 10 16 0.00 0.00
9:53 am 09:53 Mostly Sunny 57 13.9 48 8.9 72 72 N 17 28 30.22 1023 10 16 0.00 0.00
10:53 am 10:53 Sunny 60 15.6 47 8.3 62 62 NNE 15 24 30.22 1023 10 16 0.00 0.00
11:53 am 11:53 Sunny 63 17.2 46 7.8 54 54 N 15 24 30.21 1023 10 16 0.00 0.00
12:53 pm 12:53 Sunny 65 18.3 43 6.1 45 45 N 13 20 30.21 1023 10 16 0.00 0.00
1:53 pm 13:53 Sunny 66 18.9 43 6.1 43 43 N 13 20 30.20 1023 10 16 0.00 0.00
2:53 pm 14:53 Sunny 68 20 41 5 38 38 NNE 13 20 30.18 1022 10 16 0.00 0.00
3:53 pm 15:53 Sunny 68 20 39 3.9 35 35 N 16 26 30.18 1022 10 16 0.00 0.00
4:53 pm 16:53 Sunny 68 20 40 4.4 36 36 N 15 24 30.19 1023 10 16 0.00 0.00
5:53 pm 17:53 Sunny 66 18.9 41 5 40 40 N 9 15 30.20 1023 10 16 0.00 0.00
6:53 pm 18:53 Sunny 63 17.2 40 4.4 43 43 N 6 9 30.21 1023 10 16 0.00 0.00
7:53 pm 19:53 Clear 60 15.6 40 4.4 47 47 N 5 7 30.23 1024 10 16 0.00 0.00
8:53 pm 20:53 Clear 52 11.1 47 8.3 83 83 Calm 30.24 1024 10 16 0.00 0.00
9:53 pm 21:53 Clear 51 10.6 45 7.2 80 80 Calm 30.25 1024 10 16 0.00 0.00
10:53 pm 22:53 Clear 48 8.9 46 7.8 93 93 Calm 30.26 1025 10 16 0.00 0.00
11:53 pm 23:53 Clear 49 9.4 46 7.8 90 90 Calm 30.26 1025 10 16 0.00 0.00

Powered by AerisWeather